EW8599 Weather Reports


Display with metric or nautical units.
time (UTC)temp
F
wind
direction
speed
MPH
gust
MPH
rain 1hr
in
rain 24hr
in
rain mn
in
humidity
%
barometer
mb
20260509123658 48 138 0.0 0.0 0.05 0.00 0.00 95 998.9
20260509123645 48 138 0.0 0.0 0.05 0.16 0.00 95 998.7
20260509123155 48 101 0.0 0.0 0.05 0.00 0.00 95 998.6
20260509123139 48 101 0.0 0.0 0.05 0.15 0.00 95 998.6
20260509122915 48 163 0.0 0.0 0.05 0.15 0.00 95 998.7
20260509122650 48 163 0.0 0.0 0.05 0.00 0.00 95 998.9
20260509122420 48 169 0.0 0.0 0.04 0.14 0.00 95 998.7
20260509122148 48 169 0.0 0.0 0.04 0.00 0.00 95 998.9
20260509121909 48 171 0.0 0.0 0.05 0.14 0.00 95 998.7
20260509121644 48 171 0.0 0.0 0.05 0.00 0.00 95 998.9
20260509121142 48 169 0.0 0.0 0.05 0.00 0.00 95 998.9
20260509121131 48 169 0.0 0.0 0.05 0.14 0.00 95 998.7
20260509120640 48 176 0.0 0.0 0.05 0.00 0.00 95 998.9
20260509120632 48 173 0.0 0.0 0.05 0.13 0.00 95 998.7
20260509120138 48 203 0.0 0.0 0.05 0.00 0.00 95 998.9
20260509120132 48 189 0.0 0.0 0.05 0.13 0.00 95 998.8
20260509115635 48 138 0.0 0.0 0.04 0.00 0.00 95 998.9
20260509115632 47 138 0.0 0.0 0.04 0.12 0.00 95 998.9
20260509115133 48 134 0.0 0.0 0.05 0.00 0.00 95 999.2
20260509114632 47 134 0.0 0.0 0.05 0.12 0.00 95 999.1
20260509114132 47 161 0.0 0.0 0.04 0.11 0.00 95 999.1
20260509114129 47 150 0.0 0.0 0.05 0.00 0.00 95 999.2
20260509113631 47 69 0.0 0.0 0.05 0.11 0.00 95 999.0
20260509113627 47 88 0.0 0.0 0.05 0.00 0.00 95 999.2
20260509113131 47 88 0.0 0.0 0.04 0.10 0.00 95 999.0
20260509113124 47 88 0.0 0.0 0.04 0.00 0.00 95 999.2
20260509112914 47 88 0.0 0.0 0.04 0.10 0.00 95 999.0
20260509112620 47 88 0.0 0.0 0.04 0.00 0.00 95 999.2
20260509112135 47 155 0.0 0.0 0.04 0.10 0.00 95 998.9
20260509112118 47 155 0.0 0.0 0.04 0.00 0.00 95 998.9
20260509111629 47 155 0.0 0.0 0.03 0.09 0.00 94 998.9
20260509111615 47 155 0.0 0.0 0.03 0.00 0.00 94 998.9
20260509111115 47 155 0.0 0.0 0.03 0.09 0.00 94 998.9
20260509111112 47 155 0.0 0.0 0.03 0.00 0.00 94 998.9
20260509110611 47 168 0.0 0.0 0.02 0.08 0.00 94 998.9
20260509110609 47 168 0.0 0.0 0.02 0.00 0.00 94 998.9
20260509110106 47 171 0.0 0.0 0.02 0.08 0.00 94 998.8
20260509105604 46 170 0.0 0.0 0.02 0.00 0.00 94 998.9
20260509105111 46 110 0.0 0.0 0.01 0.07 0.00 95 998.7
20260509105101 46 110 0.0 0.0 0.01 0.00 0.00 95 998.9
20260509104611 46 175 0.0 0.0 0.01 0.07 0.00 94 998.7
20260509104558 46 160 0.0 0.0 0.01 0.00 0.00 94 998.9
20260509104108 46 67 0.0 0.0 0.01 0.07 0.00 94 998.7
20260509104055 46 63 0.0 0.0 0.00 0.00 0.00 94 998.6
20260509103626 46 76 0.0 0.0 0.00 0.06 0.00 94 998.6
20260509103621 46 63 0.0 0.0 0.00 0.06 0.00 94 998.6
20260509103553 46 76 0.0 0.0 0.00 0.00 0.00 94 998.6
20260509103051 46 76 0.0 0.0 0.00 0.00 0.00 94 998.6
20260509102602 46 76 0.0 0.0 0.00 0.06 0.00 94 998.5
20260509102548 46 76 0.0 0.0 0.00 0.00 0.00 94 998.6
20260509102105 46 183 0.0 0.0 0.00 0.06 0.00 94 998.6
20260509102045 45 183 0.0 0.0 0.00 0.00 0.00 94 998.6
20260509101603 45 185 0.0 0.0 0.00 0.06 0.00 94 998.6
20260509101541 45 185 0.0 0.0 0.00 0.00 0.00 94 998.6
20260509101352 45 178 0.0 0.0 0.00 0.06 0.00 94 998.6
20260509101038 45 177 0.0 0.0 0.00 0.00 0.00 94 998.6
20260509100604 45 180 0.0 0.0 0.00 0.06 0.00 94 998.6
20260509100535 45 180 0.0 0.0 0.00 0.00 0.00 94 998.6
20260509100104 45 180 0.0 0.0 0.00 0.06 0.00 94 998.7
20260509100032 45 180 0.0 0.0 0.00 0.00 0.00 94 998.9
20260509095605 45 161 0.0 0.0 0.00 0.06 0.00 94 998.7
20260509095529 45 161 0.0 0.0 0.00 0.00 0.00 94 998.9
20260509095107 45 153 0.0 0.0 0.00 0.06 0.00 94 998.7
20260509095026 45 153 0.0 0.0 0.00 0.00 0.00 94 998.9
20260509094602 45 136 0.0 0.0 0.00 0.06 0.00 94 998.7
20260509094522 45 171 0.0 0.0 0.00 0.00 0.00 94 998.9
20260509094110 44 171 0.0 0.0 0.00 0.06 0.00 94 998.6
20260509094020 44 202 0.0 0.0 0.00 0.00 0.00 94 998.6
20260509093611 44 202 0.0 0.0 0.00 0.06 0.00 94 998.6
20260509093518 44 203 0.0 0.0 0.00 0.00 0.00 94 998.6
20260509093102 44 182 0.0 0.0 0.00 0.06 0.00 94 998.6
20260509093015 44 182 0.0 0.0 0.00 0.00 0.00 94 998.6
20260509092845 44 182 0.0 0.0 0.00 0.06 0.00 94 998.6
20260509092513 44 182 0.0 0.0 0.00 0.00 0.00 94 998.6
20260509092349 44 172 0.0 0.0 0.00 0.06 0.00 94 998.6
20260509092011 44 172 0.0 0.0 0.00 0.00 0.00 94 998.9
20260509091556 44 156 0.0 0.0 0.00 0.06 0.00 94 998.8
20260509091508 44 128 0.0 0.0 0.00 0.00 0.00 94 998.9
20260509091057 44 168 0.0 0.0 0.00 0.06 0.00 94 998.6
20260509091005 44 170 0.0 0.0 0.00 0.00 0.00 94 998.6
20260509090555 44 170 0.0 0.0 0.00 0.06 0.00 94 998.6
20260509090502 44 154 0.0 0.0 0.00 0.00 0.00 94 998.6
20260509090051 44 174 0.0 0.0 0.00 0.06 0.00 94 998.6
20260509090000 44 190 0.0 0.0 0.00 0.00 0.00 94 998.9
20260509085550 43 185 0.0 0.0 0.00 0.06 0.00 94 998.6
20260509085456 43 182 0.0 0.0 0.00 0.00 0.00 94 998.6
20260509085048 43 182 0.0 0.0 0.00 0.06 0.00 94 998.6
20260509084953 43 163 0.0 0.0 0.00 0.00 0.00 94 998.6
20260509084548 43 162 0.0 0.0 0.00 0.06 0.00 93 998.7
20260509084450 43 162 0.0 0.0 0.00 0.00 0.00 93 998.9
20260509084048 43 162 0.0 0.0 0.00 0.06 0.00 93 998.8
20260509083947 43 162 0.0 0.0 0.00 0.00 0.00 93 998.9
20260509083546 43 162 0.0 0.0 0.00 0.06 0.00 93 998.9
20260509083444 43 162 0.0 0.0 0.00 0.00 0.00 93 999.2
20260509083044 43 162 0.0 0.0 0.00 0.06 0.00 93 999.0
20260509082941 43 162 0.0 0.0 0.00 0.00 0.00 93 999.2
20260509082545 43 162 0.0 0.0 0.00 0.06 0.00 93 999.0
20260509082438 43 162 0.0 0.0 0.00 0.00 0.00 93 998.9
20260509082039 43 162 0.0 0.0 0.00 0.06 0.00 93 998.8
20260509081935 43 162 0.0 0.0 0.00 0.00 0.00 93 998.9
20260509081542 43 162 0.0 0.0 0.00 0.06 0.00 93 998.9
20260509081432 43 162 0.0 0.0 0.00 0.00 0.00 93 998.9
20260509081038 43 162 0.0 0.0 0.00 0.06 0.00 93 998.6
20260509080929 43 162 0.0 0.0 0.00 0.00 0.00 93 998.9
20260509080813 43 162 0.0 0.0 0.00 0.06 0.00 93 998.8
20260509080427 43 162 0.0 0.0 0.00 0.00 0.00 93 999.2
20260509080037 43 162 0.0 0.0 0.00 0.06 0.00 93 999.1
20260509075925 43 162 0.0 0.0 0.00 0.00 0.00 93 999.2
20260509075536 43 162 0.0 0.0 0.00 0.06 0.00 93 999.1
20260509075422 43 162 0.0 0.0 0.00 0.00 0.00 93 999.2
20260509075314 43 162 0.0 0.0 0.00 0.06 0.00 93 999.2
20260509074920 43 162 0.0 0.0 0.00 0.00 0.00 93 999.2
20260509074531 43 162 0.0 0.0 0.00 0.06 0.00 93 999.2
20260509074417 42 162 0.0 0.0 0.00 0.00 0.00 93 999.2
20260509074026 42 162 0.0 0.0 0.00 0.06 0.00 93 999.2
20260509073913 42 162 0.0 0.0 0.00 0.00 0.00 93 999.2
20260509073522 42 162 0.0 0.0 0.00 0.06 0.00 93 999.3
20260509073410 42 162 0.0 0.0 0.00 0.00 0.00 93 999.2
20260509073301 42 162 0.0 0.0 0.00 0.06 0.00 93 999.2
20260509072906 42 162 0.0 0.0 0.00 0.00 0.00 93 999.2
20260509072518 42 162 0.0 0.0 0.00 0.06 0.00 93 999.2
20260509072403 42 162 0.0 0.0 0.00 0.00 0.00 93 999.2
20260509072015 42 162 0.0 0.0 0.00 0.06 0.00 93 999.3
20260509071859 42 162 0.0 0.0 0.00 0.00 0.00 93 999.2
20260509071513 42 162 0.0 0.0 0.00 0.06 0.00 93 999.3
20260509071357 42 162 0.0 0.0 0.00 0.00 0.00 93 999.2
20260509071012 42 162 0.0 0.0 0.00 0.06 0.00 93 999.4
20260509070854 42 162 0.0 0.0 0.00 0.00 0.00 93 999.7
20260509070510 42 162 0.0 0.0 0.00 0.06 0.00 93 999.4
20260509070351 42 162 0.0 0.0 0.00 0.00 0.00 93 999.7
20260509070012 42 162 0.0 0.0 0.00 0.06 0.00 93 999.5
20260509065846 42 162 0.0 0.0 0.00 0.00 0.00 93 999.7
20260509065512 42 162 0.0 0.0 0.00 0.06 0.00 93 999.4
20260509065343 42 163 0.0 0.0 0.00 0.00 0.00 93 999.7
20260509065009 41 186 0.0 0.0 0.00 0.06 0.00 93 999.5
20260509064839 41 159 0.0 0.0 0.00 0.00 0.00 93 999.7
20260509064509 41 159 0.0 0.0 0.00 0.06 0.00 93 999.5
20260509064337 41 157 0.0 0.0 0.00 0.00 0.00 93 999.7
20260509064010 41 186 0.0 0.0 0.00 0.06 0.00 93 999.5
20260509063834 41 279 0.0 0.0 0.00 0.00 0.00 93 999.7
20260509063510 41 279 0.0 0.0 0.00 0.06 0.00 93 999.6
20260509063330 41 279 0.0 0.0 0.00 0.00 0.00 93 999.7
20260509063009 41 279 0.0 0.0 0.00 0.06 0.00 93 999.7
20260509062828 41 279 0.0 0.0 0.00 0.00 0.00 93 1000.0
20260509062508 40 279 0.0 0.0 0.00 0.06 0.00 93 999.7
20260509062325 40 279 0.0 0.0 0.00 0.00 0.00 93 1000.0
20260509062007 40 279 0.0 0.0 0.00 0.06 0.00 93 999.8
20260509061822 40 279 0.0 0.0 0.00 0.00 0.00 93 1000.0
20260509061507 40 279 0.0 0.0 0.00 0.06 0.00 93 999.8
20260509061320 40 279 0.0 0.0 0.00 0.00 0.00 93 1000.0
20260509061245 40 279 0.0 0.0 0.00 0.06 0.00 93 999.8
20260509060816 40 279 0.0 0.0 0.00 0.00 0.00 93 1000.0
20260509060512 40 279 0.0 0.0 0.00 0.06 0.00 92 1000.0
20260509060313 40 279 0.0 0.0 0.00 0.00 0.00 92 1000.4
20260509060008 40 279 0.0 0.0 0.00 0.06 0.00 92 1000.2
20260509055809 40 279 0.0 0.0 0.00 0.00 0.00 92 1000.4
20260509055510 40 279 0.0 0.0 0.00 0.06 0.00 92 1000.2
20260509055306 40 279 0.0 0.0 0.00 0.00 0.00 92 1000.4
20260509055009 40 279 0.0 0.0 0.00 0.06 0.00 92 1000.2
20260509054802 39 279 0.0 0.0 0.00 0.00 0.00 92 1000.4
20260509054532 39 279 0.0 0.0 0.00 0.06 0.00 92 1000.3
20260509054526 39 279 0.0 0.0 0.00 0.06 0.00 92 1000.2
20260509054258 39 279 0.0 0.0 0.00 0.00 0.00 92 1000.4
20260509053757 39 279 0.0 0.0 0.00 0.00 0.00 92 1000.4
20260509053505 39 279 0.0 0.0 0.00 0.06 0.00 92 1000.3
20260509053253 39 279 0.0 0.0 0.00 0.00 0.00 92 1000.4
20260509053005 39 279 0.0 0.0 0.00 0.06 0.00 92 1000.4
20260509052751 39 279 0.0 0.0 0.00 0.00 0.00 91 1000.4
20260509052747 38 279 0.0 0.0 0.00 0.06 0.00 91 1000.3
20260509052249 39 279 0.0 0.0 0.00 0.00 0.00 91 1000.4
20260509052006 38 279 0.0 0.0 0.00 0.06 0.00 91 1000.4
20260509051746 39 279 0.0 0.0 0.00 0.00 0.00 91 1000.4
20260509051505 38 279 0.0 0.0 0.00 0.06 0.00 91 1000.3
20260509051244 38 279 0.0 0.0 0.00 0.00 0.00 91 1000.4
20260509051005 38 279 0.0 0.0 0.00 0.06 0.00 91 1000.3
20260509050740 38 279 0.0 0.0 0.00 0.00 0.00 91 1000.4
20260509050738 38 279 0.0 0.0 0.00 0.06 0.00 90 1000.3
20260509050237 38 279 0.0 0.0 0.00 0.00 0.00 90 1000.4
20260509050011 38 279 0.0 0.0 0.00 0.06 0.00 90 1000.3
20260509045735 38 279 0.0 0.0 0.00 0.00 0.00 90 1000.4
20260509045506 38 279 0.0 0.0 0.00 0.06 0.00 90 1000.4
20260509045231 38 279 0.0 0.0 0.00 0.00 0.00 90 1000.4
20260509045005 38 279 0.0 0.0 0.00 0.06 0.00 89 1000.5
20260509044729 38 279 0.0 0.0 0.00 0.00 0.00 89 1000.7
20260509044506 38 279 0.0 0.0 0.00 0.06 0.00 89 1000.5
20260509044226 38 279 0.0 0.0 0.00 0.00 0.00 89 1000.7
20260509044005 38 279 0.0 0.0 0.00 0.06 0.00 89 1000.5
20260509043722 38 279 0.0 0.0 0.00 0.00 0.00 89 1000.7
20260509043505 38 279 0.0 0.0 0.00 0.06 0.00 89 1000.5
20260509043218 38 279 0.0 0.0 0.00 0.00 0.00 88 1000.7
20260509043006 38 279 0.0 0.0 0.00 0.06 0.00 88 1000.5
20260509042715 38 279 0.0 0.0 0.00 0.00 0.00 88 1000.4
20260509042505 38 279 0.0 0.0 0.00 0.06 0.00 88 1000.4
20260509042239 38 279 0.0 0.0 0.00 0.06 0.00 88 1000.3
20260509042211 38 279 0.0 0.0 0.00 0.00 0.00 88 1000.4
20260509041708 38 279 0.0 0.0 0.00 0.00 0.00 88 1000.4
20260509041503 38 279 0.0 0.0 0.00 0.06 0.00 88 1000.3
20260509041205 38 279 0.0 0.0 0.00 0.00 0.00 88 1000.4
20260509041002 38 279 0.0 0.0 0.00 0.06 0.00 88 1000.4
20260509040751 38 279 0.0 0.0 0.00 0.06 0.00 88 1000.5
20260509040704 39 279 0.0 0.0 0.00 0.00 0.00 88 1000.7
20260509040200 39 279 0.0 0.0 0.00 0.00 0.00 88 1000.7
20260509035956 39 279 0.0 0.0 0.00 0.06 0.00 87 1000.6
20260509035657 39 279 0.0 0.0 0.00 0.00 0.00 87 1000.7
20260509035452 39 279 0.0 0.0 0.00 0.06 0.00 87 1000.7
20260509035153 39 279 0.0 0.0 0.00 0.00 0.00 87 1000.7
20260509034954 39 279 0.0 0.0 0.00 0.06 0.00 87 1000.7
20260509034651 39 279 0.0 0.0 0.00 0.00 0.00 87 1000.7
20260509034453 39 279 0.0 0.0 0.00 0.06 0.00 87 1000.7
20260509034148 39 279 0.0 0.0 0.00 0.00 0.00 86 1000.7
20260509033952 39 279 0.0 0.0 0.00 0.06 0.00 86 1000.6
20260509033645 39 279 0.0 0.0 0.00 0.00 0.00 86 1000.7
20260509033453 39 279 0.0 0.0 0.00 0.06 0.00 86 1000.6
20260509033142 40 279 0.0 0.0 0.00 0.00 0.00 86 1000.7
20260509032952 40 279 0.0 0.0 0.00 0.06 0.00 86 1000.7
20260509032639 40 279 0.0 0.0 0.00 0.00 0.00 86 1000.7
20260509032452 40 279 0.0 0.0 0.00 0.06 0.00 86 1000.7
20260509032136 40 279 0.0 0.0 0.00 0.00 0.00 85 1001.0
20260509031954 40 279 0.0 0.0 0.00 0.06 0.00 85 1000.8
20260509031634 40 279 0.0 0.0 0.00 0.00 0.00 85 1001.0
20260509031452 40 279 0.0 0.0 0.00 0.06 0.00 85 1000.7
20260509031131 40 279 0.0 0.0 0.00 0.00 0.00 85 1000.7
20260509030947 40 279 0.0 0.0 0.00 0.06 0.00 85 1000.7
20260509030629 41 279 0.0 1.0 0.00 0.00 0.00 85 1000.7
20260509030448 41 279 0.0 1.0 0.00 0.06 0.00 85 1000.8
20260509030126 41 279 0.0 1.0 0.00 0.00 0.00 84 1000.7
20260509025948 41 279 0.0 1.0 0.00 0.06 0.00 84 1000.7
20260509025622 41 279 0.0 1.0 0.00 0.00 0.00 84 1000.7
20260509025447 41 279 0.0 1.0 0.00 0.06 0.00 84 1000.7
20260509025118 42 279 0.0 0.0 0.00 0.00 0.00 84 1000.7
20260509024950 42 279 0.0 0.0 0.00 0.06 0.00 84 1000.7
20260509024613 42 279 0.0 1.0 0.00 0.00 0.00 84 1001.0
20260509024447 42 279 0.0 1.0 0.00 0.06 0.00 83 1000.8
20260509024110 42 279 0.0 1.0 0.00 0.00 0.00 83 1001.0
20260509023948 42 279 0.0 1.0 0.00 0.06 0.00 83 1000.9
20260509023608 42 279 0.0 1.0 0.00 0.00 0.00 83 1001.0
20260509023448 42 279 0.0 1.0 0.00 0.06 0.00 83 1000.9
20260509023104 43 279 0.0 1.0 0.00 0.00 0.00 83 1001.0
20260509022948 43 279 0.0 1.0 0.00 0.06 0.00 83 1001.0
20260509022600 43 279 0.0 0.0 0.00 0.00 0.00 83 1001.0
20260509022444 43 279 0.0 0.0 0.00 0.06 0.00 83 1001.0
20260509022220 43 279 0.0 0.0 0.00 0.06 0.00 83 1000.9
20260509022059 43 279 0.0 0.0 0.00 0.00 0.00 83 1001.0
20260509021555 44 279 0.0 0.0 0.00 0.00 0.00 83 1001.0
20260509021443 44 279 0.0 0.0 0.00 0.06 0.00 83 1001.0
20260509021053 44 279 0.0 0.0 0.00 0.00 0.00 83 1001.0
20260509020946 44 279 0.0 0.0 0.00 0.06 0.00 83 1000.8
20260509020551 44 279 0.0 0.0 0.00 0.00 0.00 83 1001.0
20260509020445 44 279 0.0 0.0 0.00 0.06 0.00 83 1000.8
20260509020047 44 279 0.0 0.0 0.00 0.00 0.00 84 1001.0
20260509015943 44 279 0.0 0.0 0.00 0.06 0.00 84 1000.9
20260509015547 44 279 0.0 0.0 0.00 0.00 0.00 84 1001.0
20260509015443 44 279 0.0 0.0 0.00 0.06 0.00 84 1000.8
20260509015216 44 279 0.0 0.0 0.00 0.06 0.00 84 1000.8
20260509015043 44 279 0.0 0.0 0.00 0.00 0.00 84 1000.7
20260509014540 44 279 0.0 0.0 0.00 0.00 0.00 84 1001.0
20260509014437 44 279 0.0 0.0 0.00 0.06 0.00 84 1000.8
20260509014036 45 279 0.0 0.0 0.00 0.00 0.00 84 1000.7
20260509013935 45 279 0.0 0.0 0.00 0.06 0.00 84 1000.7
20260509013533 45 279 0.0 0.0 0.00 0.00 0.00 83 1001.0
20260509013431 45 279 0.0 0.0 0.00 0.06 0.00 83 1000.8
20260509013029 45 279 0.0 0.0 0.00 0.00 0.00 83 1001.0
20260509012934 45 279 0.0 0.0 0.00 0.06 0.00 83 1000.8
20260509012526 45 279 0.0 0.0 0.00 0.00 0.00 82 1000.7
20260509012430 45 279 0.0 0.0 0.00 0.06 0.00 82 1000.6
20260509012022 45 279 0.0 0.0 0.00 0.00 0.00 82 1000.7
20260509011928 45 279 0.0 0.0 0.00 0.06 0.00 82 1000.5
20260509011520 45 279 0.0 0.0 0.00 0.00 0.00 82 1000.7
20260509011426 45 279 0.0 0.0 0.00 0.06 0.00 81 1000.4
20260509011017 45 279 0.0 0.0 0.00 0.00 0.00 80 1000.4
20260509010918 45 279 0.0 0.0 0.00 0.06 0.00 80 1000.3
20260509010641 45 279 0.0 0.0 0.00 0.06 0.00 79 1000.3
20260509010515 45 279 0.0 0.0 0.00 0.00 0.00 79 1000.4
20260509010140 45 279 0.0 0.0 0.00 0.06 0.00 78 1000.3
20260509010012 45 279 0.0 0.0 0.00 0.00 0.00 78 1000.4
20260509005510 46 279 0.0 0.0 0.00 0.00 0.00 78 1000.4
20260509005411 46 279 0.0 0.0 0.00 0.06 0.00 78 1000.0
20260509005009 46 279 0.0 0.0 0.00 0.00 0.00 77 1000.4
20260509004906 46 279 0.0 0.0 0.00 0.06 0.00 77 1000.2
20260509004507 46 279 0.0 0.0 0.00 0.00 0.00 76 1000.4
20260509004405 46 279 0.0 0.0 0.00 0.06 0.00 76 1000.0
20260509004004 47 279 0.0 0.0 0.00 0.00 0.00 75 1000.0
20260509003904 47 279 0.0 0.0 0.00 0.06 0.00 75 999.8
20260509003647 47 279 0.0 0.0 0.00 0.06 0.00 75 999.8
20260509003502 47 279 0.0 0.0 0.00 0.00 0.00 75 1000.0
20260509003140 47 279 0.0 0.0 0.00 0.06 0.00 75 999.8
20260509002959 48 279 0.0 0.0 0.00 0.00 0.00 75 1000.0
20260509002456 48 279 0.0 0.0 0.00 0.00 0.00 75 1000.0
20260509002403 48 279 0.0 0.0 0.00 0.06 0.00 75 999.8
20260509001953 48 279 0.0 0.0 0.00 0.00 0.00 74 1000.0
20260509001908 48 279 0.0 0.0 0.00 0.06 0.00 74 999.7
20260509001450 49 279 0.0 0.0 0.00 0.00 0.00 73 1000.0
20260509001408 49 279 0.0 0.0 0.00 0.06 0.00 73 999.7
20260509000946 49 279 0.0 0.0 0.00 0.00 0.00 72 1000.0
20260509000904 49 279 0.0 0.0 0.00 0.06 0.00 72 999.7
20260509000447 50 279 0.0 0.0 0.00 0.00 0.00 72 999.7
20260509000407 49 279 0.0 0.0 0.00 0.06 0.00 72 999.6
20260508235940 50 279 0.0 0.0 0.00 0.00 0.00 71 999.7
20260508235902 50 279 0.0 0.0 0.00 0.06 0.00 71 999.6
20260508235439 50 279 0.0 0.0 0.00 0.00 0.00 70 999.7
20260508235404 50 279 0.0 0.0 0.00 0.06 0.00 70 999.5
20260508234935 50 279 0.0 0.0 0.00 0.00 0.00 70 999.7
20260508234903 50 279 0.0 0.0 0.00 0.06 0.00 70 999.4
20260508234431 51 279 0.0 0.0 0.00 0.00 0.00 69 999.7
20260508234403 51 279 0.0 0.0 0.00 0.06 0.00 69 999.4
20260508233929 51 279 0.0 0.0 0.00 0.00 0.00 67 999.7
20260508233859 51 279 0.0 0.0 0.00 0.06 0.00 67 999.4
20260508233626 51 279 0.0 0.0 0.00 0.06 0.00 66 999.3
20260508233429 51 279 0.0 1.0 0.00 0.00 0.00 66 999.7
20260508232925 52 279 0.0 1.0 0.00 0.00 0.00 64 999.2
20260508232844 52 279 0.0 1.0 0.00 0.06 0.00 64 999.3
20260508232422 52 279 0.0 0.0 0.00 0.00 0.00 64 999.2
20260508232340 52 279 0.0 0.0 0.00 0.06 0.00 64 999.3
20260508232110 53 279 0.0 0.0 0.00 0.06 0.00 63 999.2
20260508231919 53 279 0.0 0.0 0.00 0.00 0.00 62 999.2
20260508231416 53 279 0.0 0.0 0.00 0.00 0.00 61 999.2
20260508231335 53 279 0.0 0.0 0.00 0.06 0.00 61 999.2
20260508230913 54 279 0.0 0.0 0.00 0.00 0.00 60 999.2
20260508230835 54 279 0.0 0.0 0.00 0.06 0.00 60 999.3
20260508230620 54 279 0.0 1.0 0.00 0.06 0.00 60 999.2
20260508230410 54 279 0.0 1.0 0.00 0.00 0.00 60 999.2
20260508225907 54 279 0.0 2.0 0.00 0.00 0.00 59 999.2
20260508225836 54 279 0.0 2.0 0.00 0.06 0.00 59 999.2
20260508225403 55 279 0.0 2.0 0.00 0.00 0.00 59 999.2
20260508225337 55 279 0.0 2.0 0.00 0.06 0.00 59 999.2
20260508224901 55 279 0.0 1.0 0.00 0.00 0.00 59 999.2
20260508224842 55 279 0.0 1.0 0.00 0.06 0.00 59 999.2
20260508224359 56 279 0.0 1.0 0.00 0.00 0.00 59 999.2
20260508224338 56 279 0.0 1.0 0.00 0.06 0.00 59 999.3
20260508223856 56 279 0.0 4.0 0.00 0.00 0.00 58 999.2
20260508223844 56 279 0.0 4.0 0.00 0.06 0.00 58 999.3
20260508223353 56 279 0.0 4.0 0.00 0.00 0.00 56 999.2
20260508223331 56 279 0.0 4.0 0.00 0.06 0.00 56 999.3
20260508222851 57 225 0.0 4.0 0.00 0.00 0.00 57 999.2
20260508222831 57 225 0.0 4.0 0.00 0.06 0.00 57 999.2
20260508222348 57 200 0.0 2.0 0.00 0.00 0.00 55 999.2
20260508222334 57 200 0.0 2.0 0.00 0.06 0.00 55 999.2
20260508222109 57 200 0.0 2.0 0.00 0.06 0.00 54 999.2
20260508221844 58 200 0.0 2.0 0.00 0.00 0.00 54 999.2
20260508221340 58 200 0.0 2.0 0.00 0.00 0.00 52 999.2
20260508221334 58 200 1.0 2.0 0.00 0.06 0.00 51 999.2
20260508220836 58 200 1.0 7.0 0.00 0.00 0.00 50 999.2
20260508220831 58 200 1.0 4.0 0.00 0.06 0.00 51 999.2
20260508220333 58 267 0.0 7.0 0.00 0.00 0.00 53 999.2
20260508220331 58 267 0.0 7.0 0.00 0.06 0.00 53 999.2
20260508215833 58 255 0.0 7.0 0.00 0.06 0.00 52 999.2
20260508215830 58 252 0.0 3.0 0.00 0.00 0.00 51 999.2
20260508215330 58 54 0.0 3.0 0.00 0.06 0.00 52 999.3
20260508215326 58 60 1.0 3.0 0.00 0.00 0.00 50 999.2
20260508214826 58 288 0.0 3.0 0.00 0.06 0.00 52 999.3
20260508214823 58 288 0.0 3.0 0.00 0.00 0.00 52 999.2
20260508214322 58 288 1.0 3.0 0.00 0.06 0.00 53 999.4
20260508214320 58 292 1.0 3.0 0.00 0.00 0.00 53 999.7
20260508213822 58 70 1.0 4.0 0.00 0.06 0.00 50 999.3
20260508213817 58 70 1.0 4.0 0.00 0.00 0.00 50 999.2
20260508213322 58 71 1.0 4.0 0.00 0.06 0.00 48 999.3
20260508213314 59 71 1.0 4.0 0.00 0.00 0.00 49 999.2
20260508212827 59 55 1.0 3.0 0.00 0.06 0.00 53 999.4
20260508212810 59 56 1.0 3.0 0.00 0.00 0.00 53 999.7
20260508212558 59 32 0.0 3.0 0.00 0.06 0.00 51 999.4
20260508212306 59 31 0.0 3.0 0.00 0.00 0.00 52 999.2
20260508211821 58 69 0.0 3.0 0.00 0.06 0.00 52 999.4
20260508211802 59 69 0.0 3.0 0.00 0.00 0.00 52 999.7
20260508211318 58 72 0.0 3.0 0.00 0.06 0.00 52 999.4
20260508211258 59 55 0.0 2.0 0.00 0.00 0.00 51 999.7
20260508211050 58 56 1.0 3.0 0.00 0.06 0.00 50 999.4
20260508210756 58 57 1.0 4.0 0.00 0.00 0.00 50 999.2
20260508210315 58 57 1.0 4.0 0.00 0.06 0.00 49 999.3
20260508210252 58 57 1.0 4.0 0.00 0.00 0.00 49 999.2
20260508210104 58 53 0.0 4.0 0.00 0.06 0.00 51 999.3
20260508205749 59 53 0.0 4.0 0.00 0.00 0.00 50 999.2
20260508205315 58 63 0.0 3.0 0.00 0.06 0.00 46 999.5
20260508205245 59 63 0.0 3.0 0.00 0.00 0.00 48 999.7
20260508204812 59 332 0.0 3.0 0.00 0.06 0.00 48 999.5
20260508204742 59 331 0.0 3.0 0.00 0.00 0.00 48 999.7
20260508204311 59 348 1.0 5.0 0.00 0.06 0.00 46 999.5
20260508204238 59 348 1.0 5.0 0.00 0.00 0.00 45 999.7
20260508203807 60 320 1.0 9.0 0.00 0.06 0.00 47 999.5
20260508203734 60 316 1.0 9.0 0.00 0.00 0.00 45 999.7
20260508203306 60 272 2.0 9.0 0.00 0.06 0.00 47 999.5
20260508203231 60 274 2.0 9.0 0.00 0.00 0.00 47 999.7
20260508202805 60 56 1.0 9.0 0.00 0.06 0.00 48 999.5
20260508202727 60 57 1.0 9.0 0.00 0.00 0.00 48 999.7
20260508202308 60 69 1.0 9.0 0.00 0.06 0.00 47 999.5
20260508202224 60 46 1.0 5.0 0.00 0.00 0.00 45 999.7
20260508201807 61 54 1.0 4.0 0.00 0.06 0.00 46 999.6
20260508201721 61 342 1.0 4.0 0.00 0.00 0.00 49 999.7
20260508201547 60 15 1.0 6.0 0.00 0.06 0.00 45 999.6
20260508201218 60 15 1.0 6.0 0.00 0.00 0.00 46 1000.0
20260508200813 60 252 2.0 7.0 0.00 0.06 0.00 46 999.7
20260508200715 60 252 2.0 7.0 0.00 0.00 0.00 46 1000.0
20260508200311 60 268 2.0 9.0 0.00 0.06 0.00 47 999.8
20260508200211 60 268 2.0 9.0 0.00 0.00 0.00 48 1000.0
20260508195803 60 278 2.0 9.0 0.00 0.06 0.00 44 999.8
20260508195707 61 311 2.0 9.0 0.00 0.00 0.00 43 1000.0
20260508195543 61 287 1.0 4.0 0.00 0.06 0.00 45 1000.0
20260508195204 61 288 1.0 4.0 0.00 0.00 0.00 44 1000.4
20260508194803 62 283 0.0 4.0 0.00 0.06 0.00 45 1000.0
20260508194700 62 266 0.0 1.0 0.00 0.00 0.00 46 1000.4
20260508194304 62 309 0.0 1.0 0.00 0.06 0.00 47 1000.0
20260508194157 62 294 0.0 1.0 0.00 0.00 0.00 44 1000.4
20260508193804 62 94 0.0 3.0 0.00 0.06 0.00 48 1000.2
20260508193654 62 215 0.0 3.0 0.00 0.00 0.00 49 1000.4
20260508193304 62 205 0.0 3.0 0.00 0.06 0.00 45 1000.3
20260508193151 62 46 0.0 3.0 0.00 0.00 0.00 47 1000.4
20260508193044 62 249 0.0 0.0 0.00 0.06 0.00 46 1000.4
20260508192647 62 0 0.0 0.0 0.00 0.00 0.00 47 1000.4
20260508192306 61 337 0.0 0.0 0.00 0.06 0.00 50 1000.3
20260508192145 61 306 0.0 0.0 0.00 0.00 0.00 51 1000.4
20260508191804 60 114 0.0 0.0 0.00 0.06 0.00 48 1000.3
20260508191642 60 287 0.0 0.0 0.00 0.00 0.00 52 1000.4
20260508191303 60 26 0.0 0.0 0.00 0.06 0.00 53 1000.5
20260508191138 60 50 0.0 0.0 0.00 0.00 0.00 49 1000.7
20260508190803 60 263 0.0 0.0 0.00 0.06 0.00 52 1000.6
20260508190636 60 73 0.0 0.0 0.00 0.00 0.00 52 1000.7
20260508190550 60 282 0.0 0.0 0.00 0.06 0.00 49 1000.6
20260508190132 60 234 0.0 0.0 0.00 0.00 0.00 50 1000.7
20260508185804 60 255 0.0 0.0 0.00 0.06 0.00 49 1000.6
20260508185629 60 288 0.0 0.0 0.00 0.00 0.00 51 1000.7
20260508185550 60 313 0.0 0.0 0.00 0.06 0.00 55 1000.7
20260508185126 59 19 0.0 0.0 0.00 0.00 0.00 58 1000.7
20260508184809 59 51 0.0 0.0 0.00 0.06 0.00 53 1000.6
20260508184624 59 169 0.0 0.0 0.00 0.00 0.00 54 1001.0
20260508184311 58 99 0.0 0.0 0.00 0.06 0.00 52 1000.9
20260508184121 58 250 0.0 0.0 0.00 0.00 0.00 55 1001.0
20260508183812 58 297 0.0 0.0 0.00 0.06 0.00 57 1000.9
20260508183617 58 20 0.0 0.0 0.00 0.00 0.00 59 1001.0
20260508183310 57 126 0.0 0.0 0.00 0.06 0.00 55 1000.9
20260508183113 57 245 0.0 0.0 0.00 0.00 0.00 55 1001.0
20260508183044 57 302 0.0 0.0 0.00 0.06 0.00 56 1001.0
20260508182609 57 321 0.0 0.0 0.00 0.00 0.00 58 1001.0
20260508182309 57 46 0.0 0.0 0.00 0.06 0.00 61 1001.1
20260508182106 56 355 0.0 0.0 0.00 0.00 0.00 63 1001.4
20260508181841 55 311 0.0 0.0 0.00 0.06 0.00 67 1001.2
20260508181830 56 82 0.0 0.0 0.00 0.06 0.00 62 1001.2
20260508181601 55 342 0.0 0.0 0.00 0.00 0.00 67 1001.4
20260508181059 54 111 0.0 0.0 0.00 0.00 0.00 66 1001.4
20260508180809 54 309 0.0 0.0 0.00 0.06 0.00 66 1001.3
20260508180556 53 283 0.0 0.0 0.00 0.00 0.00 69 1001.4
20260508180553 53 251 0.0 0.0 0.00 0.06 0.00 67 1001.4
20260508180052 53 26 0.0 0.0 0.00 0.00 0.00 68 1001.7
20260508175808 52 56 0.0 0.0 0.00 0.06 0.00 68 1001.4
20260508175549 52 183 0.0 0.0 0.00 0.00 0.00 67 1001.4
20260508175310 52 183 0.0 0.0 0.00 0.06 0.00 65 1001.4
20260508175046 52 297 0.0 0.0 0.00 0.00 0.00 65 1001.4
20260508174810 52 161 0.0 0.0 0.00 0.06 0.00 65 1001.4
20260508174544 52 338 0.0 0.0 0.00 0.00 0.00 66 1001.4
20260508174312 52 309 0.0 0.0 0.00 0.06 0.00 67 1001.6
20260508174040 52 28 0.0 0.0 0.00 0.00 0.00 66 1001.7
20260508173812 52 322 0.0 0.0 0.00 0.06 0.00 67 1001.5
20260508173537 52 338 0.0 0.0 0.00 0.00 0.00 68 1001.7
20260508173318 52 228 0.0 0.0 0.00 0.06 0.00 69 1001.6
20260508173033 52 261 0.0 0.0 0.00 0.00 0.00 69 1001.7
20260508172811 52 132 0.0 0.0 0.00 0.06 0.00 72 1001.5
20260508172531 52 155 0.0 0.0 0.00 0.00 0.00 70 1001.7
20260508172311 51 257 0.0 0.0 0.00 0.06 0.00 71 1001.5
20260508172027 51 315 0.0 0.0 0.00 0.00 0.00 73 1001.7
20260508171811 51 315 0.0 0.0 0.00 0.06 0.00 73 1001.5
20260508171524 51 264 0.0 0.0 0.00 0.00 0.00 74 1001.7
20260508171311 50 309 0.0 0.0 0.00 0.06 0.00 74 1001.6
20260508171020 50 120 0.0 0.0 0.00 0.00 0.00 72 1001.7
20260508170807 50 130 0.0 0.0 0.00 0.06 0.00 72 1001.7
20260508170517 51 291 0.0 0.0 0.00 0.00 0.00 74 1001.7
20260508170304 51 279 0.0 0.0 0.00 0.06 0.00 74 1001.7
20260508170015 51 203 0.0 0.0 0.00 0.00 0.00 78 1002.1
20260508165804 50 334 0.0 0.0 0.00 0.06 0.00 77 1001.7
20260508165512 50 318 0.0 0.0 0.00 0.00 0.00 76 1002.1
20260508165306 50 315 0.0 0.0 0.00 0.06 0.00 78 1001.8
20260508165009 50 240 0.0 0.0 0.00 0.00 0.00 79 1002.1
20260508164802 50 255 0.0 0.0 0.00 0.06 0.00 80 1001.9
20260508164536 50 143 0.0 0.0 0.00 0.06 0.00 82 1001.9
20260508164505 50 143 0.0 0.0 0.00 0.00 0.00 82 1002.1
20260508164002 50 141 0.0 0.0 0.00 0.00 0.00 83 1002.1
20260508163803 50 55 0.0 0.0 0.00 0.06 0.00 84 1001.8
20260508163538 50 302 0.0 4.0 0.00 0.06 0.00 87 1001.9
20260508163500 50 302 0.0 4.0 0.00 0.00 0.00 87 1002.1
20260508162955 49 69 1.0 4.0 0.00 0.00 0.00 88 1002.1
20260508162802 49 84 1.0 4.0 0.00 0.06 0.00 89 1001.9
20260508162543 48 315 1.0 3.0 0.00 0.06 0.00 89 1002.0
20260508162453 48 315 1.0 3.0 0.00 0.00 0.00 89 1002.1
20260508161949 48 310 1.0 6.0 0.00 0.00 0.00 90 1002.1
20260508161803 48 324 2.0 6.0 0.00 0.06 0.00 91 1001.9
20260508161540 47 84 1.0 6.0 0.00 0.06 0.00 91 1002.0
20260508161447 47 83 1.0 6.0 0.00 0.00 0.00 92 1002.1
20260508161031 46 252 1.0 4.0 0.00 0.06 0.00 92 1002.1
20260508160944 46 306 1.0 4.0 0.00 0.00 0.00 92 1002.1
20260508160443 46 83 1.0 6.0 0.00 0.00 0.00 92 1002.1
20260508160302 46 83 1.0 6.0 0.00 0.06 0.00 93 1002.1
20260508155938 46 76 1.0 6.0 0.00 0.00 0.00 93 1002.1
20260508155806 45 72 1.0 6.0 0.00 0.06 0.00 93 1002.2
20260508155536 45 280 1.0 3.0 0.00 0.06 0.00 94 1002.2
20260508155436 45 277 1.0 3.0 0.00 0.00 0.00 94 1002.4
20260508154932 44 46 0.0 3.0 0.00 0.00 0.00 94 1002.4
20260508154803 44 46 0.0 3.0 0.00 0.06 0.00 94 1002.3
20260508154430 44 292 0.0 3.0 0.00 0.00 0.00 94 1002.4
20260508154302 43 292 0.0 3.0 0.00 0.06 0.00 94 1002.3
20260508153926 43 289 0.0 2.0 0.00 0.00 0.00 94 1002.4
20260508153804 43 289 0.0 2.0 0.00 0.06 0.00 94 1002.4
20260508153424 43 287 0.0 2.0 0.00 0.00 0.00 93 1002.4
20260508153303 43 287 0.0 2.0 0.00 0.06 0.00 93 1002.4
20260508153038 42 298 0.0 2.0 0.00 0.06 0.00 93 1002.3
20260508152920 42 301 0.0 2.0 0.00 0.00 0.00 93 1002.4
20260508152417 42 301 0.0 2.0 0.00 0.00 0.00 93 1002.4
20260508152305 42 301 0.0 2.0 0.00 0.06 0.00 93 1002.4
20260508151913 42 316 0.0 2.0 0.00 0.00 0.00 93 1002.4
20260508151757 42 316 0.0 2.0 0.00 0.06 0.00 93 1002.3
20260508151410 42 316 0.0 2.0 0.00 0.00 0.00 93 1002.4
20260508151252 42 316 0.0 2.0 0.00 0.06 0.00 93 1002.3
20260508150906 42 321 0.0 1.0 0.01 0.00 0.00 93 1002.4
20260508150752 41 321 0.0 0.0 0.01 0.06 0.00 93 1002.1
20260508150403 41 321 0.0 1.0 0.01 0.00 0.00 93 1002.1
20260508150250 41 321 0.0 1.0 0.01 0.06 0.00 93 1002.1
20260508145859 41 321 0.0 1.0 0.01 0.00 0.00 93 1002.4
20260508145752 41 321 0.0 1.0 0.01 0.06 0.00 93 1002.2
20260508145355 41 321 0.0 1.0 0.01 0.00 0.00 93 1002.4
20260508145247 41 321 0.0 1.0 0.01 0.06 0.00 93 1002.3
20260508144852 41 321 0.0 1.0 0.02 0.00 0.00 93 1002.1
20260508144758 41 321 0.0 2.0 0.02 0.06 0.00 93 1002.0
20260508144350 41 321 0.0 2.0 0.02 0.00 0.00 93 1002.1
20260508144243 41 321 0.0 2.0 0.02 0.06 0.00 93 1002.0
20260508143847 41 321 0.0 2.0 0.02 0.00 0.00 93 1002.4
20260508143740 41 321 0.0 1.0 0.02 0.06 0.00 93 1002.4
20260508143344 41 325 0.0 1.0 0.02 0.00 0.00 93 1002.4
20260508143239 41 324 0.0 1.0 0.02 0.06 0.00 93 1002.3
20260508142841 41 327 0.0 1.0 0.02 0.00 0.00 93 1002.1
20260508142736 41 328 0.0 1.0 0.02 0.06 0.00 93 1002.2
20260508142338 41 263 0.0 0.0 0.03 0.00 0.00 93 1002.7
20260508142234 41 263 0.0 0.0 0.03 0.06 0.00 93 1002.5
20260508141834 41 237 0.0 0.0 0.03 0.00 0.00 93 1002.4
20260508141737 41 237 0.0 0.0 0.03 0.06 0.00 93 1002.4
20260508141331 41 236 0.0 0.0 0.04 0.00 0.00 93 1002.1
20260508141233 41 236 0.0 0.0 0.04 0.06 0.00 93 1002.1
20260508140829 41 236 0.0 0.0 0.03 0.00 0.00 93 1002.1
20260508140732 41 236 0.0 0.0 0.03 0.05 0.00 93 1001.9
20260508140510 41 236 0.0 0.0 0.03 0.05 0.00 93 1001.8
20260508140326 41 236 0.0 0.0 0.03 0.00 0.00 93 1002.1
20260508135821 41 236 0.0 0.0 0.03 0.00 0.00 93 1002.1
20260508135730 41 236 0.0 0.0 0.03 0.05 0.00 93 1001.9
20260508135318 41 236 0.0 0.0 0.04 0.00 0.00 93 1002.1
20260508135258 41 236 0.0 0.0 0.03 0.04 0.00 93 1002.0
20260508135248 41 236 0.0 0.0 0.04 0.05 0.00 93 1002.0
20260508134814 42 236 0.0 0.0 0.03 0.00 0.00 93 1002.1
20260508134311 42 236 0.0 0.0 0.04 0.00 0.00 93 1002.1
20260508134237 42 236 0.0 0.0 0.04 0.04 0.00 93 1002.0
20260508133808 42 234 0.0 0.0 0.04 0.00 0.00 93 1002.1
20260508133730 42 234 0.0 0.0 0.04 0.04 0.00 93 1002.0
20260508133306 42 232 0.0 0.0 0.04 0.00 0.00 93 1002.1
20260508133232 42 232 0.0 0.0 0.04 0.04 0.00 93 1002.1
20260508132803 42 232 0.0 0.0 0.03 0.00 0.00 93 1002.1
20260508132727 42 232 0.0 0.0 0.03 0.03 0.00 93 1002.0
20260508132300 42 231 0.0 0.0 0.03 0.00 0.00 93 1002.1
20260508132222 42 232 0.0 0.0 0.03 0.03 0.00 93 1002.0
20260508131756 42 232 0.0 0.0 0.03 0.00 0.00 93 1002.1
20260508131716 42 232 0.0 0.0 0.03 0.03 0.00 93 1001.9
20260508131447 42 232 0.0 0.0 0.02 0.02 0.00 93 1001.9
20260508131252 42 232 0.0 0.0 0.02 0.00 0.00 93 1002.1
20260508130749 42 232 0.0 0.0 0.02 0.00 0.00 93 1002.1
20260508130714 42 232 0.0 0.0 0.02 0.02 0.00 93 1001.9
20260508130246 42 231 0.0 0.0 0.02 0.00 0.00 94 1001.7
20260508130212 42 231 0.0 0.0 0.02 0.02 0.00 94 1001.7
20260508125742 42 233 0.0 0.0 0.02 0.00 0.00 94 1001.7
20260508125711 42 233 0.0 0.0 0.02 0.02 0.00 94 1001.7
20260508125238 42 216 0.0 0.0 0.01 0.00 0.00 94 1001.4
20260508125210 42 215 0.0 0.0 0.01 0.01 0.00 94 1001.3
20260508124737 42 261 0.0 0.0 0.01 0.00 0.00 94 1001.4
20260508124709 42 261 0.0 0.0 0.01 0.01 0.00 94 1001.3
20260508124233 42 265 0.0 0.0 0.00 0.00 0.00 95 1001.4
20260508124207 42 265 0.0 0.0 0.00 0.00 0.00 95 1001.3